Location: Donzy-le-Pr�
(47.3659°N, 3.1107°E)
Time: 21:34:39
(UTC+00:00)

CSL-04 Debris - Pass Details

Date: 03 March 2021
Orbit: 826 x 848 km, 98.9° (Epoch: 22 April)

Event Time Altitude Azimuth Distance (km) Brightness Sun altitude
Rises 18:23:24 0° 152° (SSE) 3,373 7.0 -8.9°
Reaches altitude 10° 18:25:46 10° 149° (SSE) 2,446 6.3 -9.3°
Maximum altitude 18:31:05 61° 70° (ENE) 955 4.2 -10.2°
Drops below altitude 10° 18:36:29 10° 352° (N) 2,477 6.8 -11.1°
Sets 18:38:53 0° 349° (NNW) 3,419 7.6 -11.5°
